• In Moldova, Republic
  • List of Countries
  • For 7 days
  • Water Temperature
  • Satellite Maps
  • Weather Map
  • Weather Widgets
  • user-avatar
    Login

    Hourly Weather Yarcevo

    Today, 22 September, Saturday

    Time Temperature Precipitation Wind Pressure Humidity
    00:00 +17°C° 0 mm 2 mps 751 mmHg 78%
    01:00 +17°C° 0 mm 2 mps 751 mmHg 79%
    02:00 +16°C° 0 mm 2 mps 750 mmHg 77%
    03:00 +16°C° 0 mm 2 mps 750 mmHg 78%
    04:00 +16°C° 0 mm 2 mps 750 mmHg 78%
    05:00 +16°C° 0 mm 2 mps 750 mmHg 79%
    06:00 +17°C° 0 mm 3 mps 750 mmHg 75%
    07:00 +18°C° 0 mm 3 mps 750 mmHg 71%
    08:00 +20°C° 0 mm 3 mps 750 mmHg 65%
    09:00 +21°C° 0 mm 4 mps 749 mmHg 61%
    10:00 +23°C° 0 mm 4 mps 749 mmHg 57%
    11:00 +25°C° 0 mm 5 mps 749 mmHg 53%
    12:00 +26°C° 0 mm 5 mps 749 mmHg 52%
    13:00 +26°C° 0 mm 6 mps 748 mmHg 51%
    14:00 +27°C° 0 mm 6 mps 748 mmHg 49%
    15:00 +25°C° 0 mm 5 mps 747 mmHg 54%
    16:00 +23°C° 0 mm 5 mps 747 mmHg 59%
    17:00 +22°C° 0 mm 4 mps 746 mmHg 64%
    18:00 +21°C° 0 mm 4 mps 746 mmHg 64%
    19:00 +21°C° 0 mm 4 mps 745 mmHg 64%
    20:00 +20°C° 0 mm 5 mps 745 mmHg 64%
    21:00 +20°C° 0 mm 5 mps 745 mmHg 61%
    22:00 +20°C° 0 mm 5 mps 744 mmHg 59%
    23:00 +20°C° 0 mm 6 mps 744 mmHg 57%

    Tomorrow, 23 September, Sunday

    Time Temperature Precipitation Wind Pressure Humidity
    00:00 +19°C° 0 mm 5 mps 744 mmHg 57%
    01:00 +19°C° 0 mm 5 mps 743 mmHg 57%
    02:00 +17°C° 0 mm 5 mps 743 mmHg 57%
    03:00 +17°C° 0.2 mm 5 mps 743 mmHg 63%
    04:00 +16°C° 0.2 mm 5 mps 742 mmHg 68%
    05:00 +15°C° 0.2 mm 4 mps 742 mmHg 74%
    06:00 +14°C° 0.7 mm 5 mps 742 mmHg 78%
    07:00 +13°C° 0.7 mm 5 mps 742 mmHg 83%
    08:00 +10°C° 0.7 mm 6 mps 742 mmHg 87%
    09:00 +10°C° 0.6 mm 6 mps 743 mmHg 86%
    10:00 +10°C° 0.6 mm 5 mps 743 mmHg 85%
    11:00 +9°C° 0.6 mm 5 mps 744 mmHg 84%
    12:00 +11°C° 0.1 mm 4 mps 744 mmHg 83%
    13:00 +11°C° 0.1 mm 4 mps 744 mmHg 81%
    14:00 +12°C° 0.1 mm 4 mps 745 mmHg 79%
    15:00 +12°C° 0 mm 4 mps 745 mmHg 80%
    16:00 +12°C° 0 mm 3 mps 745 mmHg 80%
    17:00 +12°C° 0 mm 3 mps 745 mmHg 81%
    18:00 +11°C° 0.1 mm 3 mps 745 mmHg 83%
    19:00 +10°C° 0.1 mm 3 mps 745 mmHg 86%
    20:00 +9°C° 0.1 mm 3 mps 745 mmHg 88%
    21:00 +9°C° 0 mm 3 mps 745 mmHg 89%
    22:00 +9°C° 0 mm 3 mps 745 mmHg 90%
    23:00 +9°C° 0 mm 3 mps 745 mmHg 91%

    Day after tomorrow, 24 September, Monday

    Time Temperature Precipitation Wind Pressure Humidity
    00:00 +8°C° 0 mm 3 mps 745 mmHg 92%
    01:00 +8°C° 0 mm 3 mps 745 mmHg 92%
    02:00 +8°C° 0 mm 3 mps 745 mmHg 93%
    03:00 +7°C° 0 mm 3 mps 745 mmHg 93%
    04:00 +7°C° 0 mm 3 mps 745 mmHg 93%
    05:00 +7°C° 0 mm 3 mps 744 mmHg 94%
    06:00 +8°C° 0 mm 3 mps 744 mmHg 89%
    07:00 +9°C° 0 mm 3 mps 744 mmHg 84%
    08:00 +10°C° 0 mm 4 mps 744 mmHg 79%
    09:00 +11°C° 0.1 mm 4 mps 744 mmHg 76%
    10:00 +12°C° 0.1 mm 5 mps 743 mmHg 73%
    11:00 +13°C° 0.1 mm 5 mps 743 mmHg 70%
    12:00 +11°C° 0.4 mm 6 mps 742 mmHg 73%
    13:00 +11°C° 0.4 mm 7 mps 741 mmHg 76%
    14:00 +10°C° 0.4 mm 7 mps 741 mmHg 79%
    15:00 +10°C° 2.3 mm 8 mps 739 mmHg 82%
    16:00 +9°C° 2.3 mm 8 mps 738 mmHg 86%
    17:00 +7°C° 2.3 mm 8 mps 737 mmHg 89%
    18:00 +8°C° 1.6 mm 9 mps 735 mmHg 90%
    19:00 +10°C° 1.6 mm 9 mps 733 mmHg 90%
    20:00 +11°C° 1.6 mm 10 mps 732 mmHg 90%
    21:00 +9°C° 0.6 mm 10 mps 731 mmHg 87%
    22:00 +9°C° 0.6 mm 10 mps 730 mmHg 84%
    23:00 +8°C° 0.6 mm 10 mps 729 mmHg 81%

    25 September, Tuesday

    Time Temperature Precipitation Wind Pressure Humidity
    00:00 +8°C° 0.1 mm 10 mps 729 mmHg 82%
    01:00 +7°C° 0.1 mm 11 mps 729 mmHg 82%
    02:00 +7°C° 0.1 mm 11 mps 729 mmHg 82%
    03:00 +7°C° 0.1 mm 11 mps 730 mmHg 82%
    04:00 +7°C° 0.1 mm 11 mps 730 mmHg 83%
    05:00 +7°C° 0.1 mm 10 mps 731 mmHg 83%
    06:00 +7°C° 0.2 mm 10 mps 732 mmHg 82%
    07:00 +7°C° 0.2 mm 10 mps 733 mmHg 82%
    08:00 +6°C° 0.2 mm 10 mps 734 mmHg 82%
    09:00 +6°C° 0.2 mm 10 mps 735 mmHg 81%
    10:00 +6°C° 0.2 mm 10 mps 736 mmHg 80%
    11:00 +6°C° 0.2 mm 10 mps 737 mmHg 79%
    12:00 +6°C° 0.4 mm 10 mps 738 mmHg 79%
    13:00 +6°C° 0.4 mm 9 mps 739 mmHg 79%
    14:00 +6°C° 0.4 mm 9 mps 740 mmHg 80%
    15:00 +5°C° 0.6 mm 9 mps 741 mmHg 81%
    16:00 +5°C° 0.6 mm 8 mps 742 mmHg 82%
    17:00 +5°C° 0.6 mm 8 mps 743 mmHg 84%
    18:00 +5°C° 0.5 mm 8 mps 743 mmHg 83%
    19:00 +5°C° 0.5 mm 7 mps 744 mmHg 83%
    20:00 +4°C° 0.5 mm 7 mps 745 mmHg 83%
    21:00 +4°C° 0.1 mm 6 mps 746 mmHg 84%
    22:00 +4°C° 0.1 mm 6 mps 746 mmHg 84%
    23:00 +5°C° 0.1 mm 5 mps 747 mmHg 84%

    26 September, Wednesday

    Time Temperature Precipitation Wind Pressure Humidity
    00:00 +3°C° 0 mm 5 mps 748 mmHg 85%
    01:00 +3°C° 0 mm 5 mps 748 mmHg 85%
    02:00 +3°C° 0 mm 5 mps 749 mmHg 86%
    03:00 +2°C° 0 mm 5 mps 750 mmHg 86%
    04:00 +3°C° 0 mm 4 mps 750 mmHg 87%
    05:00 +1°C° 0 mm 4 mps 751 mmHg 87%
    06:00 +3°C° 0 mm 4 mps 751 mmHg 83%
    07:00 +2°C° 0 mm 5 mps 752 mmHg 79%
    08:00 +3°C° 0 mm 5 mps 752 mmHg 75%
    09:00 +5°C° 0 mm 5 mps 752 mmHg 71%
    10:00 +7°C° 0 mm 5 mps 752 mmHg 67%
    11:00 +9°C° 0 mm 6 mps 752 mmHg 62%
    12:00 +9°C° 0 mm 6 mps 752 mmHg 60%
    13:00 +10°C° 0 mm 6 mps 751 mmHg 58%
    14:00 +11°C° 0 mm 6 mps 751 mmHg 56%
    15:00 +10°C° 0 mm 6 mps 751 mmHg 60%
    16:00 +10°C° 0 mm 5 mps 750 mmHg 65%
    17:00 +9°C° 0 mm 5 mps 750 mmHg 69%
    18:00 +9°C° 0 mm 5 mps 750 mmHg 72%
    19:00 +8°C° 0 mm 6 mps 750 mmHg 76%
    20:00 +8°C° 0 mm 6 mps 750 mmHg 79%
    21:00 +8°C° 0.1 mm 7 mps 749 mmHg 80%
    22:00 +8°C° 0.1 mm 7 mps 749 mmHg 82%
    23:00 +8°C° 0.1 mm 7 mps 748 mmHg 83%

    27 September, Thursday

    Time Temperature Precipitation Wind Pressure Humidity
    00:00 +7°C° 0.2 mm 8 mps 748 mmHg 82%
    01:00 +6°C° 0.2 mm 8 mps 747 mmHg 81%
    02:00 +5°C° 0.2 mm 8 mps 747 mmHg 81%
    03:00 +5°C° 0 mm 9 mps 746 mmHg 79%
    04:00 +5°C° 0 mm 9 mps 745 mmHg 77%
    05:00 +5°C° 0 mm 9 mps 745 mmHg 75%
    06:00 +5°C° 0 mm 9 mps 744 mmHg 75%
    07:00 +6°C° 0 mm 9 mps 744 mmHg 75%
    08:00 +6°C° 0 mm 10 mps 744 mmHg 74%
    09:00 +6°C° 0.1 mm 10 mps 743 mmHg 75%
    10:00 +7°C° 0.1 mm 10 mps 743 mmHg 76%
    11:00 +8°C° 0.1 mm 10 mps 742 mmHg 77%
    12:00 +8°C° 0.4 mm 10 mps 742 mmHg 79%
    13:00 +8°C° 0.4 mm 9 mps 741 mmHg 81%
    14:00 +7°C° 0.4 mm 9 mps 741 mmHg 84%
    15:00 +7°C° 0.6 mm 9 mps 740 mmHg 85%
    16:00 +7°C° 0.6 mm 9 mps 740 mmHg 86%
    17:00 +7°C° 0.6 mm 9 mps 740 mmHg 87%
    18:00 +8°C° 0.1 mm 9 mps 740 mmHg 87%
    19:00 +9°C° 0.1 mm 8 mps 740 mmHg 87%
    20:00 +10°C° 0.1 mm 8 mps 740 mmHg 87%
    21:00 +9°C° 0.2 mm 7 mps 740 mmHg 87%
    22:00 +9°C° 0.2 mm 7 mps 740 mmHg 87%
    23:00 +9°C° 0.2 mm 6 mps 740 mmHg 87%
    Show more